WXM80 ListenWXM80 Stop

You find our weather info also at:

UK Metoffice

WeatherCloud

Weather Underground

Northeastern Weather Network

AWEKAS

Citizen Weather Observer Program (CWOP)

HAMweather, WeatherForYou, PWS Weather


Weather Underground History page Text

Daily Summary for February 2, 2018 Units:  Both    English   Metric
« Previous Day
Next Day »
Daily Weekly Monthly Yearly Custom
  High: Low: Average:
Temperature: TemperatureF °F /  -17.8 °C 16.5 °F /  -8.6 °C 27.7 °F /  -2.4 °C
Dew Point: DewpointF °F /  -17.8 °C 3.3 °F /  -15.9 °C 18.5 °F /  -7.5 °C
Humidity: Humidity % 49 % 69 %
Wind Speed: WindSpeedMPH mph /  0 km/h - 6.9 mph /  11.1 km/h
Wind Gust: WindSpeedGustMPH mph /  0 km/h - -
Wind:- - WNW
Pressure: PressureIn in /  0 hPa 29.53 in /  999.9 hPa -
Precipitation: 0.08 in /  2.03 mm    
Historical Graphs
 
 
Tabular Data for February 2, 2018
Time Temperature Dew Point Pressure Wind Wind Speed Wind Gust Humidity Rainfall Rate (Hourly)
TemperatureF °F /  -17.8 °C DewpointF °F /  -17.8 °C PressureIn in /  0 hPa Calm     Humidity % HourlyPrecipIn in /  0 mm
00:00 37.3 °F /  2.9 °C 35.2 °F /  1.8 °C 29.59 in /  1001.9 hPa Calm     92 % 0.00 in /  0 mm
00:05 37.2 °F /  2.9 °C 35.4 °F /  1.9 °C 29.58 in /  1001.6 hPa Calm     93 % 0.00 in /  0 mm
00:10 37.1 °F /  2.8 °C 35.0 °F /  1.7 °C 29.58 in /  1001.6 hPa Calm     92 % 0.00 in /  0 mm
00:15 37.0 °F /  2.8 °C 34.9 °F /  1.6 °C 29.57 in /  1001.2 hPa Calm     92 % 0.00 in /  0 mm
00:20 37.0 °F /  2.8 °C 35.2 °F /  1.8 °C 29.57 in /  1001.2 hPa Calm     93 % 0.00 in /  0 mm
00:25 36.9 °F /  2.7 °C 35.1 °F /  1.7 °C 29.57 in /  1001.2 hPa Calm     93 % 0.00 in /  0 mm
00:30 36.8 °F /  2.7 °C 35.0 °F /  1.7 °C 29.56 in /  1000.9 hPa Calm     93 % 0.00 in /  0 mm
00:36 36.7 °F /  2.6 °C 34.9 °F /  1.6 °C 29.56 in /  1000.9 hPa Calm     93 % 0.00 in /  0 mm
00:41 36.7 °F /  2.6 °C 34.9 °F /  1.6 °C 29.55 in /  1000.6 hPa Calm     93 % 0.00 in /  0 mm
00:46 36.6 °F /  2.6 °C 34.8 °F /  1.6 °C 29.55 in /  1000.6 hPa Calm     93 % 0.00 in /  0 mm
00:51 36.5 °F /  2.5 °C 34.7 °F /  1.5 °C 29.55 in /  1000.6 hPa Calm     93 % 0.00 in /  0 mm
00:56 36.5 °F /  2.5 °C 34.7 °F /  1.5 °C 29.55 in /  1000.6 hPa Calm     93 % 0.00 in /  0 mm
01:01 36.5 °F /  2.5 °C 34.7 °F /  1.5 °C 29.55 in /  1000.6 hPa Calm     93 % 0.00 in /  0 mm
01:06 36.4 °F /  2.4 °C 34.6 °F /  1.4 °C 29.55 in /  1000.6 hPa Calm     93 % 0.00 in /  0 mm
01:11 36.4 °F /  2.4 °C 34.6 °F /  1.4 °C 29.54 in /  1000.2 hPa Calm     93 % 0.00 in /  0 mm
01:16 36.4 °F /  2.4 °C 34.6 °F /  1.4 °C 29.54 in /  1000.2 hPa Calm     93 % 0.00 in /  0 mm
01:18 36.4 °F /  2.4 °C 34.6 °F /  1.4 °C 29.53 in /  999.9 hPa Calm     93 % 0.00 in /  0 mm
01:23 36.5 °F /  2.5 °C 34.7 °F /  1.5 °C 29.53 in /  999.9 hPa Calm     93 % 0.00 in /  0 mm
01:28 36.6 °F /  2.6 °C 34.8 °F /  1.6 °C 29.54 in /  1000.2 hPa Calm     93 % 0.00 in /  0 mm
01:33 36.6 °F /  2.6 °C 35.0 °F /  1.7 °C 29.53 in /  999.9 hPa Calm     94 % 0.00 in /  0 mm
01:38 36.6 °F /  2.6 °C 35.0 °F /  1.7 °C 29.54 in /  1000.2 hPa NW 2.6 mph /  4.2 km/h 3.0 mph /  4.8 km/h 94 % 0.00 in /  0 mm
01:43 36.6 °F /  2.6 °C 35.0 °F /  1.7 °C 29.54 in /  1000.2 hPa WNW 0.3 mph /  0.5 km/h 2.3 mph /  3.7 km/h 94 % 0.00 in /  0 mm
01:48 36.6 °F /  2.6 °C 35.0 °F /  1.7 °C 29.54 in /  1000.2 hPa Calm     94 % 0.01 in /  0.25 mm
01:53 36.6 °F /  2.6 °C 35.0 °F /  1.7 °C 29.54 in /  1000.2 hPa WNW 0.2 mph /  0.3 km/h 2.3 mph /  3.7 km/h 94 % 0.01 in /  0.25 mm
01:58 36.6 °F /  2.6 °C 35.0 °F /  1.7 °C 29.54 in /  1000.2 hPa WNW 0.3 mph /  0.5 km/h 3.5 mph /  5.6 km/h 94 % 0.02 in /  0.51 mm
02:03 36.5 °F /  2.5 °C 34.9 °F /  1.6 °C 29.54 in /  1000.2 hPa Calm   2.3 mph /  3.7 km/h 94 % 0.02 in /  0.51 mm
02:08 36.5 °F /  2.5 °C 34.9 °F /  1.6 °C 29.54 in /  1000.2 hPa West 1.3 mph /  2.1 km/h 4.0 mph /  6.4 km/h 94 % 0.02 in /  0.51 mm
02:14 36.4 °F /  2.4 °C 34.8 °F /  1.6 °C 29.54 in /  1000.2 hPa West 1.0 mph /  1.6 km/h 1.2 mph /  1.9 km/h 94 % 0.03 in /  0.76 mm
02:19 36.4 °F /  2.4 °C 34.8 °F /  1.6 °C 29.55 in /  1000.6 hPa WSW 1.3 mph /  2.1 km/h 3.5 mph /  5.6 km/h 94 % 0.03 in /  0.76 mm
02:24 36.4 °F /  2.4 °C 34.8 °F /  1.6 °C 29.55 in /  1000.6 hPa West 2.7 mph /  4.3 km/h 5.8 mph /  9.3 km/h 94 % 0.03 in /  0.76 mm
02:29 36.5 °F /  2.5 °C 34.9 °F /  1.6 °C 29.55 in /  1000.6 hPa WSW 3.2 mph /  5.1 km/h 8.1 mph /  13 km/h 94 % 0.04 in /  1.02 mm
02:34 36.5 °F /  2.5 °C 34.9 °F /  1.6 °C 29.55 in /  1000.6 hPa West 4.1 mph /  6.6 km/h 6.9 mph /  11.1 km/h 94 % 0.04 in /  1.02 mm
02:39 36.4 °F /  2.4 °C 34.8 °F /  1.6 °C 29.55 in /  1000.6 hPa WNW 2.4 mph /  3.9 km/h 3.5 mph /  5.6 km/h 94 % 0.04 in /  1.02 mm
02:44 36.4 °F /  2.4 °C 34.8 °F /  1.6 °C 29.55 in /  1000.6 hPa WSW 3.9 mph /  6.3 km/h 7.0 mph /  11.3 km/h 94 % 0.04 in /  1.02 mm
02:49 36.4 °F /  2.4 °C 34.8 °F /  1.6 °C 29.55 in /  1000.6 hPa West 2.8 mph /  4.5 km/h 4.6 mph /  7.4 km/h 94 % 0.04 in /  1.02 mm
02:54 36.3 °F /  2.4 °C 35.0 °F /  1.7 °C 29.55 in /  1000.6 hPa WSW 3.9 mph /  6.3 km/h 5.8 mph /  9.3 km/h 95 % 0.04 in /  1.02 mm
02:59 36.3 °F /  2.4 °C 35.0 °F /  1.7 °C 29.54 in /  1000.2 hPa WSW 1.0 mph /  1.6 km/h 4.0 mph /  6.4 km/h 95 % 0.04 in /  1.02 mm
03:04 36.2 °F /  2.3 °C 34.9 °F /  1.6 °C 29.54 in /  1000.2 hPa SW 1.8 mph /  2.9 km/h 3.5 mph /  5.6 km/h 95 % 0.04 in /  1.02 mm
03:09 36.2 °F /  2.3 °C 34.9 °F /  1.6 °C 29.54 in /  1000.2 hPa WSW 2.8 mph /  4.5 km/h 5.8 mph /  9.3 km/h 95 % 0.05 in /  1.27 mm
03:14 36.3 °F /  2.4 °C 35.0 °F /  1.7 °C 29.54 in /  1000.2 hPa West 2.7 mph /  4.3 km/h 3.5 mph /  5.6 km/h 95 % 0.04 in /  1.02 mm
03:19 36.2 °F /  2.3 °C 34.9 °F /  1.6 °C 29.54 in /  1000.2 hPa WSW 2.2 mph /  3.5 km/h 3.5 mph /  5.6 km/h 95 % 0.04 in /  1.02 mm
03:24 36.3 °F /  2.4 °C 35.0 °F /  1.7 °C 29.54 in /  1000.2 hPa WSW 2.8 mph /  4.5 km/h 6.9 mph /  11.1 km/h 95 % 0.04 in /  1.02 mm
03:29 36.3 °F /  2.4 °C 35.0 °F /  1.7 °C 29.53 in /  999.9 hPa WSW 0.3 mph /  0.5 km/h 3.5 mph /  5.6 km/h 95 % 0.03 in /  0.76 mm
03:34 36.3 °F /  2.4 °C 35.0 °F /  1.7 °C 29.54 in /  1000.2 hPa WSW 3.3 mph /  5.3 km/h 6.9 mph /  11.1 km/h 95 % 0.03 in /  0.76 mm
03:39 36.3 °F /  2.4 °C 35.0 °F /  1.7 °C 29.54 in /  1000.2 hPa WSW 5.1 mph /  8.2 km/h 9.2 mph /  14.8 km/h 95 % 0.04 in /  1.02 mm
03:44 36.4 °F /  2.4 °C 35.1 °F /  1.7 °C 29.54 in /  1000.2 hPa WSW 5.7 mph /  9.2 km/h 8.0 mph /  12.9 km/h 95 % 0.04 in /  1.02 mm
03:49 36.3 °F /  2.4 °C 35.0 °F /  1.7 °C 29.53 in /  999.9 hPa West 3.6 mph /  5.8 km/h 5.8 mph /  9.3 km/h 95 % 0.03 in /  0.76 mm
03:54 36.3 °F /  2.4 °C 35.0 °F /  1.7 °C 29.53 in /  999.9 hPa West 2.0 mph /  3.2 km/h 3.5 mph /  5.6 km/h 95 % 0.03 in /  0.76 mm
03:59 36.3 °F /  2.4 °C 35.0 °F /  1.7 °C 29.54 in /  1000.2 hPa WSW 0.2 mph /  0.3 km/h 3.5 mph /  5.6 km/h 95 % 0.02 in /  0.51 mm
04:05 36.3 °F /  2.4 °C 35.0 °F /  1.7 °C 29.55 in /  1000.6 hPa SW 1.9 mph /  3.1 km/h 7.0 mph /  11.3 km/h 95 % 0.02 in /  0.51 mm
04:10 36.3 °F /  2.4 °C 35.0 °F /  1.7 °C 29.55 in /  1000.6 hPa West 2.7 mph /  4.3 km/h 10.4 mph /  16.7 km/h 95 % 0.01 in /  0.25 mm
04:15 36.3 °F /  2.4 °C 35.0 °F /  1.7 °C 29.55 in /  1000.6 hPa West 3.3 mph /  5.3 km/h 5.0 mph /  8 km/h 95 % 0.01 in /  0.25 mm
04:20 36.3 °F /  2.4 °C 35.0 °F /  1.7 °C 29.55 in /  1000.6 hPa West 2.8 mph /  4.5 km/h 6.9 mph /  11.1 km/h 95 % 0.01 in /  0.25 mm
04:25 36.3 °F /  2.4 °C 35.0 °F /  1.7 °C 29.55 in /  1000.6 hPa NW 4.6 mph /  7.4 km/h 6.9 mph /  11.1 km/h 95 % 0.01 in /  0.25 mm
04:30 36.2 °F /  2.3 °C 34.9 °F /  1.6 °C 29.56 in /  1000.9 hPa WNW 3.3 mph /  5.3 km/h 5.8 mph /  9.3 km/h 95 % 0.01 in /  0.25 mm
04:35 36.2 °F /  2.3 °C 34.9 °F /  1.6 °C 29.56 in /  1000.9 hPa NW 4.1 mph /  6.6 km/h 6.9 mph /  11.1 km/h 95 % 0.01 in /  0.25 mm
04:40 36.1 °F /  2.3 °C 34.8 °F /  1.6 °C 29.57 in /  1001.2 hPa WNW 3.5 mph /  5.6 km/h 5.8 mph /  9.3 km/h 95 % 0.00 in /  0 mm
04:45 36.1 °F /  2.3 °C 34.8 °F /  1.6 °C 29.57 in /  1001.2 hPa WNW 5.6 mph /  9 km/h 8.1 mph /  13 km/h 95 % 0.00 in /  0 mm
04:50 35.9 °F /  2.2 °C 34.6 °F /  1.4 °C 29.57 in /  1001.2 hPa NNW 8.4 mph /  13.5 km/h 17.3 mph /  27.8 km/h 95 % 0.00 in /  0 mm
04:55 35.3 °F /  1.8 °C 34.0 °F /  1.1 °C 29.58 in /  1001.6 hPa NNW 6.1 mph /  9.8 km/h 9.2 mph /  14.8 km/h 95 % 0.00 in /  0 mm
05:00 34.9 °F /  1.6 °C 33.3 °F /  0.7 °C 29.58 in /  1001.6 hPa NNE 5.7 mph /  9.2 km/h 11.5 mph /  18.5 km/h 94 % 0.00 in /  0 mm
05:05 34.4 °F /  1.3 °C 32.9 °F /  0.5 °C 29.57 in /  1001.2 hPa North 9.9 mph /  15.9 km/h 13.8 mph /  22.2 km/h 94 % 0.00 in /  0 mm
05:10 34.1 °F /  1.2 °C 32.6 °F /  0.3 °C 29.59 in /  1001.9 hPa ENE 6.7 mph /  10.8 km/h 11.5 mph /  18.5 km/h 94 % 0.00 in /  0 mm
05:15 33.9 °F /  1.1 °C 32.4 °F /  0.2 °C 29.60 in /  1002.3 hPa North 5.8 mph /  9.3 km/h 12.7 mph /  20.4 km/h 94 % 0.00 in /  0 mm
05:20 33.7 °F /  0.9 °C 32.2 °F /  0.1 °C 29.61 in /  1002.6 hPa North 5.9 mph /  9.5 km/h 11.5 mph /  18.5 km/h 94 % 0.00 in /  0 mm
05:25 33.6 °F /  0.9 °C 32.1 °F /  0.1 °C 29.60 in /  1002.3 hPa North 3.9 mph /  6.3 km/h 8.0 mph /  12.9 km/h 94 % 0.00 in /  0 mm
05:30 33.5 °F /  0.8 °C 32.2 °F /  0.1 °C 29.60 in /  1002.3 hPa North 4.9 mph /  7.9 km/h 6.0 mph /  9.7 km/h 95 % 0.00 in /  0 mm
05:35 33.3 °F /  0.7 °C 31.8 °F /  -0.1 °C 29.60 in /  1002.3 hPa NNW 8.0 mph /  12.9 km/h 12.0 mph /  19.3 km/h 94 % 0.00 in /  0 mm
05:40 33.1 °F /  0.6 °C 31.6 °F /  -0.2 °C 29.61 in /  1002.6 hPa NNW 5.0 mph /  8 km/h 13.0 mph /  20.9 km/h 94 % 0.00 in /  0 mm
05:45 32.8 °F /  0.4 °C 31.3 °F /  -0.4 °C 29.62 in /  1002.9 hPa NNW 7.0 mph /  11.3 km/h 14.0 mph /  22.5 km/h 94 % 0.00 in /  0 mm
05:50 32.6 °F /  0.3 °C 30.8 °F /  -0.7 °C 29.61 in /  1002.6 hPa NW 5.0 mph /  8 km/h 14.0 mph /  22.5 km/h 93 % 0.00 in /  0 mm
05:55 32.5 °F /  0.3 °C 30.7 °F /  -0.7 °C 29.61 in /  1002.6 hPa North 7.0 mph /  11.3 km/h 13.0 mph /  20.9 km/h 93 % 0.00 in /  0 mm
06:00 32.3 °F /  0.2 °C 30.5 °F /  -0.8 °C 29.62 in /  1002.9 hPa North 5.7 mph /  9.2 km/h 15.0 mph /  24.1 km/h 93 % 0.00 in /  0 mm
06:05 32.1 °F /  0.1 °C 30.3 °F /  -0.9 °C 29.64 in /  1003.6 hPa NNW 5.6 mph /  9 km/h 9.2 mph /  14.8 km/h 93 % 0.00 in /  0 mm
06:10 31.8 °F /  -0.1 °C 29.7 °F /  -1.3 °C 29.64 in /  1003.6 hPa NW 5.0 mph /  8 km/h 11.0 mph /  17.7 km/h 92 % 0.00 in /  0 mm
06:15 31.6 °F /  -0.2 °C 29.5 °F /  -1.4 °C 29.64 in /  1003.6 hPa North 9.2 mph /  14.8 km/h 12.0 mph /  19.3 km/h 92 % 0.00 in /  0 mm
06:20 31.3 °F /  -0.4 °C 29.2 °F /  -1.6 °C 29.64 in /  1003.6 hPa NNE 11.0 mph /  17.7 km/h 17.0 mph /  27.4 km/h 92 % 0.00 in /  0 mm
06:25 31.0 °F /  -0.6 °C 28.7 °F /  -1.8 °C 29.63 in /  1003.3 hPa North 8.9 mph /  14.3 km/h 11.5 mph /  18.5 km/h 91 % 0.00 in /  0 mm
06:30 30.8 °F /  -0.7 °C 28.5 °F /  -1.9 °C 29.63 in /  1003.3 hPa North 6.0 mph /  9.7 km/h 20.0 mph /  32.2 km/h 91 % 0.00 in /  0 mm
06:35 30.7 °F /  -0.7 °C 28.1 °F /  -2.2 °C 29.64 in /  1003.6 hPa North 7.0 mph /  11.3 km/h 15.0 mph /  24.1 km/h 90 % 0.00 in /  0 mm
06:40 30.5 °F /  -0.8 °C 27.9 °F /  -2.3 °C 29.65 in /  1003.9 hPa North 6.0 mph /  9.7 km/h 12.0 mph /  19.3 km/h 90 % 0.00 in /  0 mm
06:46 30.4 °F /  -0.9 °C 27.8 °F /  -2.3 °C 29.64 in /  1003.6 hPa North 6.0 mph /  9.7 km/h 15.0 mph /  24.1 km/h 90 % 0.00 in /  0 mm
06:50 30.3 °F /  -0.9 °C 27.7 °F /  -2.4 °C 29.64 in /  1003.6 hPa North 3.0 mph /  4.8 km/h 10.0 mph /  16.1 km/h 90 % 0.00 in /  0 mm
06:55 30.3 °F /  -0.9 °C 27.7 °F /  -2.4 °C 29.65 in /  1003.9 hPa North 5.0 mph /  8 km/h 10.0 mph /  16.1 km/h 90 % 0.00 in /  0 mm
07:01 30.2 °F /  -1 °C 27.6 °F /  -2.4 °C 29.65 in /  1003.9 hPa NW 7.2 mph /  11.6 km/h 13.0 mph /  20.9 km/h 90 % 0.00 in /  0 mm
07:06 30.1 °F /  -1.1 °C 27.3 °F /  -2.6 °C 29.65 in /  1003.9 hPa NNW 6.2 mph /  10 km/h 11.5 mph /  18.5 km/h 89 % 0.00 in /  0 mm
07:11 29.9 °F /  -1.2 °C 26.8 °F /  -2.9 °C 29.66 in /  1004.3 hPa WNW 6.3 mph /  10.1 km/h 15.0 mph /  24.1 km/h 88 % 0.00 in /  0 mm
07:16 29.7 °F /  -1.3 °C 26.3 °F /  -3.2 °C 29.67 in /  1004.6 hPa NW 4.5 mph /  7.2 km/h 8.1 mph /  13 km/h 87 % 0.00 in /  0 mm
07:21 29.7 °F /  -1.3 °C 26.3 °F /  -3.2 °C 29.67 in /  1004.6 hPa NNW 3.1 mph /  5 km/h 6.9 mph /  11.1 km/h 87 % 0.00 in /  0 mm
07:26 29.7 °F /  -1.3 °C 26.6 °F /  -3 °C 29.67 in /  1004.6 hPa NNE 7.6 mph /  12.2 km/h 11.5 mph /  18.5 km/h 88 % 0.00 in /  0 mm
07:31 29.6 °F /  -1.3 °C 26.2 °F /  -3.2 °C 29.67 in /  1004.6 hPa NNW 2.6 mph /  4.2 km/h 8.1 mph /  13 km/h 87 % 0.00 in /  0 mm
07:36 29.6 °F /  -1.3 °C 26.2 °F /  -3.2 °C 29.67 in /  1004.6 hPa North 5.2 mph /  8.4 km/h 11.5 mph /  18.5 km/h 87 % 0.00 in /  0 mm
07:41 29.5 °F /  -1.4 °C 26.1 °F /  -3.3 °C 29.69 in /  1005.3 hPa NW 6.8 mph /  10.9 km/h 11.5 mph /  18.5 km/h 87 % 0.00 in /  0 mm
07:46 29.4 °F /  -1.4 °C 26.0 °F /  -3.3 °C 29.70 in /  1005.6 hPa NW 7.0 mph /  11.3 km/h 9.2 mph /  14.8 km/h 87 % 0.00 in /  0 mm
07:51 29.4 °F /  -1.4 °C 25.7 °F /  -3.5 °C 29.70 in /  1005.6 hPa NNW 6.3 mph /  10.1 km/h 11.5 mph /  18.5 km/h 86 % 0.00 in /  0 mm
07:56 29.3 °F /  -1.5 °C 25.6 °F /  -3.6 °C 29.70 in /  1005.6 hPa NNW 5.8 mph /  9.3 km/h 9.2 mph /  14.8 km/h 86 % 0.00 in /  0 mm
08:01 29.2 °F /  -1.6 °C 25.3 °F /  -3.7 °C 29.68 in /  1005 hPa NW 4.6 mph /  7.4 km/h 12.7 mph /  20.4 km/h 85 % 0.00 in /  0 mm
08:06 29.2 °F /  -1.6 °C 25.3 °F /  -3.7 °C 29.71 in /  1006 hPa NNW 5.1 mph /  8.2 km/h 7.0 mph /  11.3 km/h 85 % 0.00 in /  0 mm
08:11 29.1 °F /  -1.6 °C 25.2 °F /  -3.8 °C 29.72 in /  1006.3 hPa NNW 6.9 mph /  11.1 km/h 11.5 mph /  18.5 km/h 85 % 0.00 in /  0 mm
08:16 29.1 °F /  -1.6 °C 25.2 °F /  -3.8 °C 29.70 in /  1005.6 hPa NW 3.6 mph /  5.8 km/h 9.0 mph /  14.5 km/h 85 % 0.00 in /  0 mm
08:21 29.0 °F /  -1.7 °C 25.1 °F /  -3.8 °C 29.70 in /  1005.6 hPa North 3.2 mph /  5.1 km/h 10.4 mph /  16.7 km/h 85 % 0.00 in /  0 mm
08:26 29.0 °F /  -1.7 °C 25.3 °F /  -3.7 °C 29.70 in /  1005.6 hPa NNW 4.5 mph /  7.2 km/h 4.6 mph /  7.4 km/h 86 % 0.00 in /  0 mm
08:31 29.0 °F /  -1.7 °C 25.1 °F /  -3.8 °C 29.70 in /  1005.6 hPa NNW 6.0 mph /  9.7 km/h 10.4 mph /  16.7 km/h 85 % 0.00 in /  0 mm
08:37 29.1 °F /  -1.6 °C 25.2 °F /  -3.8 °C 29.73 in /  1006.7 hPa North 7.5 mph /  12.1 km/h 11.5 mph /  18.5 km/h 85 % 0.00 in /  0 mm
08:42 29.0 °F /  -1.7 °C 23.6 °F /  -4.7 °C 29.71 in /  1006 hPa WNW 11.0 mph /  17.7 km/h 23.0 mph /  37 km/h 80 % 0.00 in /  0 mm
08:47 28.9 °F /  -1.7 °C 22.6 °F /  -5.2 °C 29.71 in /  1006 hPa WNW 7.1 mph /  11.4 km/h 18.0 mph /  29 km/h 77 % 0.00 in /  0 mm
08:52 28.9 °F /  -1.7 °C 22.3 °F /  -5.4 °C 29.72 in /  1006.3 hPa NW 8.0 mph /  12.9 km/h 15.0 mph /  24.1 km/h 76 % 0.00 in /  0 mm
08:57 28.8 °F /  -1.8 °C 21.6 °F /  -5.8 °C 29.72 in /  1006.3 hPa West 7.1 mph /  11.4 km/h 18.4 mph /  29.6 km/h 74 % 0.00 in /  0 mm
09:02 28.7 °F /  -1.8 °C 21.1 °F /  -6.1 °C 29.73 in /  1006.7 hPa NW 5.7 mph /  9.2 km/h 10.4 mph /  16.7 km/h 73 % 0.00 in /  0 mm
09:07 28.8 °F /  -1.8 °C 21.9 °F /  -5.6 °C 29.71 in /  1006 hPa NW 8.4 mph /  13.5 km/h 12.7 mph /  20.4 km/h 75 % 0.00 in /  0 mm
09:12 28.9 °F /  -1.7 °C 21.7 °F /  -5.7 °C 29.72 in /  1006.3 hPa NNW 8.8 mph /  14.2 km/h 16.1 mph /  25.9 km/h 74 % 0.00 in /  0 mm
09:17 29.0 °F /  -1.7 °C 21.7 °F /  -5.7 °C 29.73 in /  1006.7 hPa WNW 9.8 mph /  15.8 km/h 19.6 mph /  31.5 km/h 74 % 0.00 in /  0 mm
09:22 29.2 °F /  -1.6 °C 21.6 °F /  -5.8 °C 29.73 in /  1006.7 hPa NNW 4.9 mph /  7.9 km/h 10.4 mph /  16.7 km/h 73 % 0.00 in /  0 mm
09:27 29.4 °F /  -1.4 °C 21.5 °F /  -5.8 °C 29.74 in /  1007 hPa NW 8.7 mph /  14 km/h 11.5 mph /  18.5 km/h 72 % 0.00 in /  0 mm
09:32 29.5 °F /  -1.4 °C 20.2 °F /  -6.6 °C 29.73 in /  1006.7 hPa WSW 7.9 mph /  12.7 km/h 15.0 mph /  24.1 km/h 68 % 0.00 in /  0 mm
09:37 29.6 °F /  -1.3 °C 18.9 °F /  -7.3 °C 29.73 in /  1006.7 hPa NW 7.7 mph /  12.4 km/h 13.8 mph /  22.2 km/h 64 % 0.00 in /  0 mm
09:42 29.5 °F /  -1.4 °C 17.7 °F /  -7.9 °C 29.74 in /  1007 hPa West 9.4 mph /  15.1 km/h 18.4 mph /  29.6 km/h 61 % 0.00 in /  0 mm
09:47 29.5 °F /  -1.4 °C 17.3 °F /  -8.2 °C 29.74 in /  1007 hPa NW 10.2 mph /  16.4 km/h 18.4 mph /  29.6 km/h 60 % 0.00 in /  0 mm
09:52 29.4 °F /  -1.4 °C 17.2 °F /  -8.2 °C 29.74 in /  1007 hPa West 7.8 mph /  12.6 km/h 17.3 mph /  27.8 km/h 60 % 0.00 in /  0 mm
09:58 29.6 °F /  -1.3 °C 17.8 °F /  -7.9 °C 29.74 in /  1007 hPa WNW 10.4 mph /  16.7 km/h 19.6 mph /  31.5 km/h 61 % 0.00 in /  0 mm
10:03 29.6 °F /  -1.3 °C 17.4 °F /  -8.1 °C 29.75 in /  1007.3 hPa WNW 11.9 mph /  19.2 km/h 19.6 mph /  31.5 km/h 60 % 0.00 in /  0 mm
10:08 29.6 °F /  -1.3 °C 18.2 °F /  -7.7 °C 29.75 in /  1007.3 hPa NW 9.0 mph /  14.5 km/h 19.6 mph /  31.5 km/h 62 % 0.00 in /  0 mm
10:13 29.6 °F /  -1.3 °C 17.4 °F /  -8.1 °C 29.75 in /  1007.3 hPa WNW 11.0 mph /  17.7 km/h 17.3 mph /  27.8 km/h 60 % 0.00 in /  0 mm
10:18 29.7 °F /  -1.3 °C 17.5 °F /  -8.1 °C 29.75 in /  1007.3 hPa West 10.0 mph /  16.1 km/h 19.6 mph /  31.5 km/h 60 % 0.00 in /  0 mm
10:23 29.8 °F /  -1.2 °C 18.4 °F /  -7.6 °C 29.75 in /  1007.3 hPa NW 8.2 mph /  13.2 km/h 16.0 mph /  25.7 km/h 62 % 0.00 in /  0 mm
10:28 29.8 °F /  -1.2 °C 17.6 °F /  -8 °C 29.75 in /  1007.3 hPa WSW 9.5 mph /  15.3 km/h 20.7 mph /  33.3 km/h 60 % 0.00 in /  0 mm
10:33 29.9 °F /  -1.2 °C 17.7 °F /  -7.9 °C 29.75 in /  1007.3 hPa West 8.5 mph /  13.7 km/h 15.0 mph /  24.1 km/h 60 % 0.00 in /  0 mm
10:38 30.1 °F /  -1.1 °C 17.9 °F /  -7.8 °C 29.76 in /  1007.7 hPa WNW 7.5 mph /  12.1 km/h 13.8 mph /  22.2 km/h 60 % 0.00 in /  0 mm
10:43 30.2 °F /  -1 °C 18.0 °F /  -7.8 °C 29.76 in /  1007.7 hPa West 7.3 mph /  11.7 km/h 13.0 mph /  20.9 km/h 60 % 0.00 in /  0 mm
10:48 30.2 °F /  -1 °C 17.6 °F /  -8 °C 29.76 in /  1007.7 hPa West 11.3 mph /  18.2 km/h 17.0 mph /  27.4 km/h 59 % 0.00 in /  0 mm
10:53 30.1 °F /  -1.1 °C 17.5 °F /  -8.1 °C 29.76 in /  1007.7 hPa NW 6.6 mph /  10.6 km/h 12.7 mph /  20.4 km/h 59 % 0.00 in /  0 mm
10:58 30.0 °F /  -1.1 °C 17.8 °F /  -7.9 °C 29.75 in /  1007.3 hPa West 7.3 mph /  11.7 km/h 13.8 mph /  22.2 km/h 60 % 0.00 in /  0 mm
11:03 29.9 °F /  -1.2 °C 17.3 °F /  -8.2 °C 29.76 in /  1007.7 hPa WNW 6.8 mph /  10.9 km/h 11.5 mph /  18.5 km/h 59 % 0.00 in /  0 mm
11:08 29.9 °F /  -1.2 °C 17.3 °F /  -8.2 °C 29.75 in /  1007.3 hPa NW 6.5 mph /  10.5 km/h 11.0 mph /  17.7 km/h 59 % 0.00 in /  0 mm
11:13 30.0 °F /  -1.1 °C 17.4 °F /  -8.1 °C 29.75 in /  1007.3 hPa WNW 9.2 mph /  14.8 km/h 17.3 mph /  27.8 km/h 59 % 0.00 in /  0 mm
11:18 30.0 °F /  -1.1 °C 17.4 °F /  -8.1 °C 29.76 in /  1007.7 hPa WNW 5.7 mph /  9.2 km/h 11.5 mph /  18.5 km/h 59 % 0.00 in /  0 mm
11:23 29.7 °F /  -1.3 °C 17.1 °F /  -8.3 °C 29.76 in /  1007.7 hPa NW 7.9 mph /  12.7 km/h 12.7 mph /  20.4 km/h 59 % 0.00 in /  0 mm
11:29 29.6 °F /  -1.3 °C 17.0 °F /  -8.3 °C 29.76 in /  1007.7 hPa NW 9.6 mph /  15.4 km/h 13.8 mph /  22.2 km/h 59 % 0.00 in /  0 mm
11:34 29.3 °F /  -1.5 °C 16.7 °F /  -8.5 °C 29.76 in /  1007.7 hPa West 10.8 mph /  17.4 km/h 18.0 mph /  29 km/h 59 % 0.00 in /  0 mm
11:39 29.1 °F /  -1.6 °C 17.3 °F /  -8.2 °C 29.75 in /  1007.3 hPa NW 8.2 mph /  13.2 km/h 16.1 mph /  25.9 km/h 61 % 0.00 in /  0 mm
11:44 28.9 °F /  -1.7 °C 17.1 °F /  -8.3 °C 29.76 in /  1007.7 hPa WNW 5.7 mph /  9.2 km/h 10.4 mph /  16.7 km/h 61 % 0.00 in /  0 mm
11:49 28.8 °F /  -1.8 °C 17.0 °F /  -8.3 °C 29.76 in /  1007.7 hPa NW 5.1 mph /  8.2 km/h 12.7 mph /  20.4 km/h 61 % 0.00 in /  0 mm
11:54 28.7 °F /  -1.8 °C 16.9 °F /  -8.4 °C 29.76 in /  1007.7 hPa NW 6.1 mph /  9.8 km/h 11.5 mph /  18.5 km/h 61 % 0.00 in /  0 mm
11:59 28.7 °F /  -1.8 °C 17.7 °F /  -7.9 °C 29.75 in /  1007.3 hPa NW 7.2 mph /  11.6 km/h 16.1 mph /  25.9 km/h 63 % 0.00 in /  0 mm
12:04 28.5 °F /  -1.9 °C 16.4 °F /  -8.7 °C 29.76 in /  1007.7 hPa NW 6.2 mph /  10 km/h 10.4 mph /  16.7 km/h 60 % 0.00 in /  0 mm
12:09 28.5 °F /  -1.9 °C 17.1 °F /  -8.3 °C 29.76 in /  1007.7 hPa WNW 6.6 mph /  10.6 km/h 13.8 mph /  22.2 km/h 62 % 0.00 in /  0 mm
12:14 28.7 °F /  -1.8 °C 16.6 °F /  -8.6 °C 29.75 in /  1007.3 hPa WSW 6.4 mph /  10.3 km/h 19.0 mph /  30.6 km/h 60 % 0.00 in /  0 mm
12:19 28.8 °F /  -1.8 °C 16.3 °F /  -8.7 °C 29.75 in /  1007.3 hPa WNW 11.9 mph /  19.2 km/h 17.3 mph /  27.8 km/h 59 % 0.00 in /  0 mm
12:24 28.9 °F /  -1.7 °C 16.0 °F /  -8.9 °C 29.75 in /  1007.3 hPa NW 11.2 mph /  18 km/h 16.1 mph /  25.9 km/h 58 % 0.00 in /  0 mm
12:29 28.7 °F /  -1.8 °C 15.4 °F /  -9.2 °C 29.76 in /  1007.7 hPa West 4.8 mph /  7.7 km/h 15.0 mph /  24.1 km/h 57 % 0.00 in /  0 mm
12:34 28.5 °F /  -1.9 °C 14.8 °F /  -9.6 °C 29.76 in /  1007.7 hPa NW 8.2 mph /  13.2 km/h 16.1 mph /  25.9 km/h 56 % 0.00 in /  0 mm
12:39 28.4 °F /  -2 °C 15.1 °F /  -9.4 °C 29.75 in /  1007.3 hPa West 10.1 mph /  16.3 km/h 15.0 mph /  24.1 km/h 57 % 0.00 in /  0 mm
12:44 28.6 °F /  -1.9 °C 16.1 °F /  -8.8 °C 29.75 in /  1007.3 hPa WNW 4.6 mph /  7.4 km/h 20.0 mph /  32.2 km/h 59 % 0.00 in /  0 mm
12:49 28.7 °F /  -1.8 °C 15.4 °F /  -9.2 °C 29.76 in /  1007.7 hPa WSW 8.8 mph /  14.2 km/h 13.8 mph /  22.2 km/h 57 % 0.00 in /  0 mm
12:54 28.7 °F /  -1.8 °C 15.4 °F /  -9.2 °C 29.76 in /  1007.7 hPa NW 8.9 mph /  14.3 km/h 17.3 mph /  27.8 km/h 57 % 0.00 in /  0 mm
13:00 28.7 °F /  -1.8 °C 15.0 °F /  -9.4 °C 29.76 in /  1007.7 hPa WSW 11.7 mph /  18.8 km/h 17.3 mph /  27.8 km/h 56 % 0.00 in /  0 mm
13:05 28.4 °F /  -2 °C 13.9 °F /  -10.1 °C 29.76 in /  1007.7 hPa WNW 12.2 mph /  19.6 km/h 18.0 mph /  29 km/h 54 % 0.00 in /  0 mm
13:10 28.0 °F /  -2.2 °C 14.3 °F /  -9.8 °C 29.76 in /  1007.7 hPa NNW 9.6 mph /  15.4 km/h 15.0 mph /  24.1 km/h 56 % 0.00 in /  0 mm
13:15 27.6 °F /  -2.4 °C 13.9 °F /  -10.1 °C 29.76 in /  1007.7 hPa NW 6.9 mph /  11.1 km/h 19.6 mph /  31.5 km/h 56 % 0.00 in /  0 mm
13:20 27.4 °F /  -2.6 °C 14.1 °F /  -9.9 °C 29.77 in /  1008 hPa NW 9.2 mph /  14.8 km/h 18.4 mph /  29.6 km/h 57 % 0.00 in /  0 mm
13:25 27.1 °F /  -2.7 °C 14.3 °F /  -9.8 °C 29.77 in /  1008 hPa WNW 7.0 mph /  11.3 km/h 18.4 mph /  29.6 km/h 58 % 0.00 in /  0 mm
13:30 26.9 °F /  -2.8 °C 14.1 °F /  -9.9 °C 29.77 in /  1008 hPa WNW 8.5 mph /  13.7 km/h 13.8 mph /  22.2 km/h 58 % 0.00 in /  0 mm
13:35 26.7 °F /  -2.9 °C 13.5 °F /  -10.3 °C 29.77 in /  1008 hPa WNW 7.6 mph /  12.2 km/h 13.8 mph /  22.2 km/h 57 % 0.00 in /  0 mm
13:40 26.7 °F /  -2.9 °C 13.9 °F /  -10.1 °C 29.77 in /  1008 hPa West 7.8 mph /  12.6 km/h 11.5 mph /  18.5 km/h 58 % 0.00 in /  0 mm
13:45 26.6 °F /  -3 °C 13.8 °F /  -10.1 °C 29.77 in /  1008 hPa WNW 11.0 mph /  17.7 km/h 19.6 mph /  31.5 km/h 58 % 0.00 in /  0 mm
13:50 26.7 °F /  -2.9 °C 14.7 °F /  -9.6 °C 29.77 in /  1008 hPa North 5.6 mph /  9 km/h 8.1 mph /  13 km/h 60 % 0.00 in /  0 mm
13:55 27.1 °F /  -2.7 °C 14.7 °F /  -9.6 °C 29.77 in /  1008 hPa WNW 6.8 mph /  10.9 km/h 11.0 mph /  17.7 km/h 59 % 0.00 in /  0 mm
14:00 27.3 °F /  -2.6 °C 14.5 °F /  -9.7 °C 29.78 in /  1008.4 hPa NW 10.6 mph /  17.1 km/h 17.3 mph /  27.8 km/h 58 % 0.00 in /  0 mm
14:05 27.4 °F /  -2.6 °C 14.1 °F /  -9.9 °C 29.77 in /  1008 hPa NW 5.2 mph /  8.4 km/h 16.1 mph /  25.9 km/h 57 % 0.00 in /  0 mm
14:10 27.3 °F /  -2.6 °C 13.7 °F /  -10.2 °C 29.78 in /  1008.4 hPa WNW 7.6 mph /  12.2 km/h 16.1 mph /  25.9 km/h 56 % 0.00 in /  0 mm
14:15 27.3 °F /  -2.6 °C 13.2 °F /  -10.4 °C 29.78 in /  1008.4 hPa NW 9.1 mph /  14.6 km/h 16.1 mph /  25.9 km/h 55 % 0.00 in /  0 mm
14:21 27.4 °F /  -2.6 °C 13.7 °F /  -10.2 °C 29.78 in /  1008.4 hPa WNW 9.0 mph /  14.5 km/h 15.0 mph /  24.1 km/h 56 % 0.00 in /  0 mm
14:26 27.3 °F /  -2.6 °C 12.8 °F /  -10.7 °C 29.78 in /  1008.4 hPa WNW 10.0 mph /  16.1 km/h 20.0 mph /  32.2 km/h 54 % 0.00 in /  0 mm
14:31 27.3 °F /  -2.6 °C 13.2 °F /  -10.4 °C 29.78 in /  1008.4 hPa NW 8.0 mph /  12.9 km/h 21.0 mph /  33.8 km/h 55 % 0.00 in /  0 mm
14:36 27.3 °F /  -2.6 °C 13.2 °F /  -10.4 °C 29.78 in /  1008.4 hPa WNW 6.0 mph /  9.7 km/h 21.0 mph /  33.8 km/h 55 % 0.00 in /  0 mm
14:41 27.4 °F /  -2.6 °C 13.3 °F /  -10.4 °C 29.78 in /  1008.4 hPa WNW 8.0 mph /  12.9 km/h 16.0 mph /  25.7 km/h 55 % 0.00 in /  0 mm
14:46 27.4 °F /  -2.6 °C 13.3 °F /  -10.4 °C 29.79 in /  1008.7 hPa North 8.1 mph /  13 km/h 15.0 mph /  24.1 km/h 55 % 0.00 in /  0 mm
14:51 27.4 °F /  -2.6 °C 13.3 °F /  -10.4 °C 29.79 in /  1008.7 hPa WNW 8.0 mph /  12.9 km/h 17.0 mph /  27.4 km/h 55 % 0.00 in /  0 mm
14:56 27.3 °F /  -2.6 °C 13.7 °F /  -10.2 °C 29.79 in /  1008.7 hPa NW 8.0 mph /  12.9 km/h 18.0 mph /  29 km/h 56 % 0.00 in /  0 mm
15:01 27.2 °F /  -2.7 °C 13.6 °F /  -10.2 °C 29.80 in /  1009 hPa West 7.3 mph /  11.7 km/h 12.7 mph /  20.4 km/h 56 % 0.00 in /  0 mm
15:06 27.2 °F /  -2.7 °C 14.4 °F /  -9.8 °C 29.80 in /  1009 hPa NW 5.0 mph /  8 km/h 17.0 mph /  27.4 km/h 58 % 0.00 in /  0 mm
15:11 27.2 °F /  -2.7 °C 13.6 °F /  -10.2 °C 29.80 in /  1009 hPa NW 9.0 mph /  14.5 km/h 20.0 mph /  32.2 km/h 56 % 0.00 in /  0 mm
15:16 27.2 °F /  -2.7 °C 13.6 °F /  -10.2 °C 29.80 in /  1009 hPa WNW 8.0 mph /  12.9 km/h 18.0 mph /  29 km/h 56 % 0.00 in /  0 mm
15:21 27.1 °F /  -2.7 °C 12.6 °F /  -10.8 °C 29.81 in /  1009.4 hPa WNW 7.0 mph /  11.3 km/h 18.0 mph /  29 km/h 54 % 0.00 in /  0 mm
15:26 27.0 °F /  -2.8 °C 13.0 °F /  -10.6 °C 29.81 in /  1009.4 hPa WNW 10.0 mph /  16.1 km/h 25.0 mph /  40.2 km/h 55 % 0.00 in /  0 mm
15:31 26.9 °F /  -2.8 °C 12.0 °F /  -11.1 °C 29.81 in /  1009.4 hPa NNW 9.3 mph /  15 km/h 14.0 mph /  22.5 km/h 53 % 0.00 in /  0 mm
15:36 26.8 °F /  -2.9 °C 11.5 °F /  -11.4 °C 29.82 in /  1009.7 hPa WNW 8.1 mph /  13 km/h 15.0 mph /  24.1 km/h 52 % 0.00 in /  0 mm
15:41 26.7 °F /  -2.9 °C 11.4 °F /  -11.4 °C 29.82 in /  1009.7 hPa West 8.4 mph /  13.5 km/h 13.8 mph /  22.2 km/h 52 % 0.00 in /  0 mm
15:46 26.6 °F /  -3 °C 11.7 °F /  -11.3 °C 29.83 in /  1010 hPa WNW 10.7 mph /  17.2 km/h 19.6 mph /  31.5 km/h 53 % 0.00 in /  0 mm
15:51 26.5 °F /  -3.1 °C 10.8 °F /  -11.8 °C 29.83 in /  1010 hPa WNW 8.9 mph /  14.3 km/h 13.8 mph /  22.2 km/h 51 % 0.00 in /  0 mm
15:56 26.5 °F /  -3.1 °C 11.2 °F /  -11.6 °C 29.83 in /  1010 hPa West 5.6 mph /  9 km/h 15.0 mph /  24.1 km/h 52 % 0.00 in /  0 mm
16:01 26.5 °F /  -3.1 °C 11.2 °F /  -11.6 °C 29.83 in /  1010 hPa NW 10.4 mph /  16.7 km/h 18.4 mph /  29.6 km/h 52 % 0.00 in /  0 mm
16:06 26.5 °F /  -3.1 °C 12.1 °F /  -11.1 °C 29.83 in /  1010 hPa West 14.5 mph /  23.3 km/h 26.5 mph /  42.6 km/h 54 % 0.00 in /  0 mm
16:12 26.3 °F /  -3.2 °C 10.2 °F /  -12.1 °C 29.83 in /  1010 hPa NW 13.3 mph /  21.4 km/h 25.3 mph /  40.7 km/h 50 % 0.00 in /  0 mm
16:17 26.0 °F /  -3.3 °C 10.8 °F /  -11.8 °C 29.84 in /  1010.4 hPa North 14.0 mph /  22.5 km/h 27.6 mph /  44.4 km/h 52 % 0.00 in /  0 mm
16:22 25.7 °F /  -3.5 °C 10.0 °F /  -12.2 °C 29.84 in /  1010.4 hPa NW 13.0 mph /  20.9 km/h 23.0 mph /  37 km/h 51 % 0.00 in /  0 mm
16:27 25.5 °F /  -3.6 °C 9.4 °F /  -12.6 °C 29.84 in /  1010.4 hPa West 12.1 mph /  19.5 km/h 26.5 mph /  42.6 km/h 50 % 0.00 in /  0 mm
16:32 25.2 °F /  -3.8 °C 9.1 °F /  -12.7 °C 29.84 in /  1010.4 hPa West 6.7 mph /  10.8 km/h 16.1 mph /  25.9 km/h 50 % 0.00 in /  0 mm
16:37 25.1 °F /  -3.8 °C 9.9 °F /  -12.3 °C 29.85 in /  1010.7 hPa WNW 12.0 mph /  19.3 km/h 21.9 mph /  35.2 km/h 52 % 0.00 in /  0 mm
16:42 24.9 °F /  -3.9 °C 10.2 °F /  -12.1 °C 29.85 in /  1010.7 hPa West 9.8 mph /  15.8 km/h 18.4 mph /  29.6 km/h 53 % 0.00 in /  0 mm
16:47 24.9 °F /  -3.9 °C 11.0 °F /  -11.7 °C 29.86 in /  1011.1 hPa NW 7.8 mph /  12.6 km/h 19.0 mph /  30.6 km/h 55 % 0.00 in /  0 mm
16:52 24.7 °F /  -4.1 °C 10.4 °F /  -12 °C 29.86 in /  1011.1 hPa WNW 8.6 mph /  13.8 km/h 12.7 mph /  20.4 km/h 54 % 0.00 in /  0 mm
16:57 24.6 °F /  -4.1 °C 10.3 °F /  -12.1 °C 29.86 in /  1011.1 hPa West 4.9 mph /  7.9 km/h 11.5 mph /  18.5 km/h 54 % 0.00 in /  0 mm
17:02 24.5 °F /  -4.2 °C 10.2 °F /  -12.1 °C 29.87 in /  1011.4 hPa North 9.4 mph /  15.1 km/h 20.7 mph /  33.3 km/h 54 % 0.00 in /  0 mm
17:07 24.5 °F /  -4.2 °C 10.6 °F /  -11.9 °C 29.87 in /  1011.4 hPa NW 9.2 mph /  14.8 km/h 19.6 mph /  31.5 km/h 55 % 0.00 in /  0 mm
17:12 24.3 °F /  -4.3 °C 10.8 °F /  -11.8 °C 29.88 in /  1011.7 hPa WNW 9.7 mph /  15.6 km/h 20.7 mph /  33.3 km/h 56 % 0.00 in /  0 mm
17:17 24.2 °F /  -4.3 °C 10.3 °F /  -12.1 °C 29.88 in /  1011.7 hPa WNW 13.4 mph /  21.6 km/h 19.6 mph /  31.5 km/h 55 % 0.00 in /  0 mm
17:22 24.1 °F /  -4.4 °C 9.8 °F /  -12.3 °C 29.89 in /  1012.1 hPa WNW 14.0 mph /  22.5 km/h 19.6 mph /  31.5 km/h 54 % 0.00 in /  0 mm
17:27 23.8 °F /  -4.6 °C 9.1 °F /  -12.7 °C 29.89 in /  1012.1 hPa NW 8.4 mph /  13.5 km/h 16.1 mph /  25.9 km/h 53 % 0.00 in /  0 mm
17:32 23.5 °F /  -4.7 °C 8.9 °F /  -12.8 °C 29.90 in /  1012.4 hPa NW 7.8 mph /  12.6 km/h 16.1 mph /  25.9 km/h 53 % 0.00 in /  0 mm
17:37 23.4 °F /  -4.8 °C 8.3 °F /  -13.2 °C 29.90 in /  1012.4 hPa NW 5.9 mph /  9.5 km/h 24.2 mph /  38.9 km/h 52 % 0.00 in /  0 mm
17:42 23.1 °F /  -4.9 °C 8.1 °F /  -13.3 °C 29.91 in /  1012.8 hPa NW 10.3 mph /  16.6 km/h 19.6 mph /  31.5 km/h 52 % 0.00 in /  0 mm
17:48 23.0 °F /  -5 °C 8.0 °F /  -13.3 °C 29.91 in /  1012.8 hPa WNW 12.0 mph /  19.3 km/h 16.0 mph /  25.7 km/h 52 % 0.00 in /  0 mm
17:53 22.9 °F /  -5.1 °C 8.7 °F /  -12.9 °C 29.92 in /  1013.1 hPa WNW 9.6 mph /  15.4 km/h 17.3 mph /  27.8 km/h 54 % 0.00 in /  0 mm
17:58 22.8 °F /  -5.1 °C 8.6 °F /  -13 °C 29.92 in /  1013.1 hPa NNW 10.2 mph /  16.4 km/h 18.4 mph /  29.6 km/h 54 % 0.00 in /  0 mm
18:03 22.6 °F /  -5.2 °C 8.0 °F /  -13.3 °C 29.92 in /  1013.1 hPa North 14.0 mph /  22.5 km/h 23.0 mph /  37 km/h 53 % 0.00 in /  0 mm
18:08 22.6 °F /  -5.2 °C 7.6 °F /  -13.6 °C 29.93 in /  1013.4 hPa WNW 10.1 mph /  16.3 km/h 20.7 mph /  33.3 km/h 52 % 0.00 in /  0 mm
18:13 22.4 °F /  -5.3 °C 6.5 °F /  -14.2 °C 29.93 in /  1013.4 hPa NW 10.0 mph /  16.1 km/h 20.7 mph /  33.3 km/h 50 % 0.00 in /  0 mm
18:18 22.2 °F /  -5.4 °C 6.4 °F /  -14.2 °C 29.94 in /  1013.8 hPa NNW 8.2 mph /  13.2 km/h 17.3 mph /  27.8 km/h 50 % 0.00 in /  0 mm
18:23 22.0 °F /  -5.6 °C 7.0 °F /  -13.9 °C 29.95 in /  1014.1 hPa NW 15.0 mph /  24.1 km/h 23.0 mph /  37 km/h 52 % 0.00 in /  0 mm
18:28 21.8 °F /  -5.7 °C 6.0 °F /  -14.4 °C 29.95 in /  1014.1 hPa North 10.9 mph /  17.5 km/h 24.2 mph /  38.9 km/h 50 % 0.00 in /  0 mm
18:33 21.7 °F /  -5.7 °C 6.3 °F /  -14.3 °C 29.95 in /  1014.1 hPa NW 15.3 mph /  24.6 km/h 26.5 mph /  42.6 km/h 51 % 0.00 in /  0 mm
18:38 21.6 °F /  -5.8 °C 7.5 °F /  -13.6 °C 29.96 in /  1014.4 hPa NNW 10.3 mph /  16.6 km/h 17.3 mph /  27.8 km/h 54 % 0.00 in /  0 mm
18:43 21.5 °F /  -5.8 °C 6.6 °F /  -14.1 °C 29.97 in /  1014.8 hPa WNW 10.5 mph /  16.9 km/h 18.4 mph /  29.6 km/h 52 % 0.00 in /  0 mm
18:48 21.4 °F /  -5.9 °C 5.6 °F /  -14.7 °C 29.97 in /  1014.8 hPa NW 10.8 mph /  17.4 km/h 17.3 mph /  27.8 km/h 50 % 0.00 in /  0 mm
18:53 21.3 °F /  -5.9 °C 6.4 °F /  -14.2 °C 29.97 in /  1014.8 hPa WNW 9.3 mph /  15 km/h 18.4 mph /  29.6 km/h 52 % 0.00 in /  0 mm
18:58 21.1 °F /  -6.1 °C 5.8 °F /  -14.6 °C 29.98 in /  1015.1 hPa WNW 8.5 mph /  13.7 km/h 15.0 mph /  24.1 km/h 51 % 0.00 in /  0 mm
19:03 20.9 °F /  -6.2 °C 6.0 °F /  -14.4 °C 29.98 in /  1015.1 hPa North 10.2 mph /  16.4 km/h 14.0 mph /  22.5 km/h 52 % 0.00 in /  0 mm
19:09 20.7 °F /  -6.3 °C 4.5 °F /  -15.3 °C 29.99 in /  1015.5 hPa NNW 8.6 mph /  13.8 km/h 19.6 mph /  31.5 km/h 49 % 0.00 in /  0 mm
19:14 20.5 °F /  -6.4 °C 5.2 °F /  -14.9 °C 29.99 in /  1015.5 hPa WNW 11.4 mph /  18.3 km/h 26.5 mph /  42.6 km/h 51 % 0.00 in /  0 mm
19:19 20.4 °F /  -6.4 °C 5.5 °F /  -14.7 °C 30.00 in /  1015.8 hPa NNE 9.0 mph /  14.5 km/h 19.6 mph /  31.5 km/h 52 % 0.00 in /  0 mm
19:24 20.3 °F /  -6.5 °C 5.0 °F /  -15 °C 30.00 in /  1015.8 hPa WNW 8.3 mph /  13.4 km/h 16.1 mph /  25.9 km/h 51 % 0.00 in /  0 mm
19:29 20.1 °F /  -6.6 °C 4.8 °F /  -15.1 °C 30.00 in /  1015.8 hPa NW 8.4 mph /  13.5 km/h 15.0 mph /  24.1 km/h 51 % 0.00 in /  0 mm
19:34 20.0 °F /  -6.7 °C 4.7 °F /  -15.2 °C 30.00 in /  1015.8 hPa West 8.7 mph /  14 km/h 15.0 mph /  24.1 km/h 51 % 0.00 in /  0 mm
19:39 19.9 °F /  -6.7 °C 4.7 °F /  -15.2 °C 30.00 in /  1015.8 hPa NW 9.1 mph /  14.6 km/h 19.6 mph /  31.5 km/h 51 % 0.00 in /  0 mm
19:44 19.8 °F /  -6.8 °C 5.0 °F /  -15 °C 30.00 in /  1015.8 hPa WNW 10.8 mph /  17.4 km/h 15.0 mph /  24.1 km/h 52 % 0.00 in /  0 mm
19:49 19.8 °F /  -6.8 °C 5.0 °F /  -15 °C 30.01 in /  1016.1 hPa NW 10.7 mph /  17.2 km/h 18.4 mph /  29.6 km/h 52 % 0.00 in /  0 mm
19:54 19.7 °F /  -6.8 °C 4.9 °F /  -15.1 °C 30.01 in /  1016.1 hPa NW 4.8 mph /  7.7 km/h 17.3 mph /  27.8 km/h 52 % 0.00 in /  0 mm
19:59 19.6 °F /  -6.9 °C 4.8 °F /  -15.1 °C 30.01 in /  1016.1 hPa WNW 10.7 mph /  17.2 km/h 21.9 mph /  35.2 km/h 52 % 0.00 in /  0 mm
20:04 19.5 °F /  -6.9 °C 4.7 °F /  -15.2 °C 30.01 in /  1016.1 hPa NNW 11.1 mph /  17.9 km/h 18.4 mph /  29.6 km/h 52 % 0.00 in /  0 mm
20:09 19.4 °F /  -7 °C 5.0 °F /  -15 °C 30.02 in /  1016.5 hPa NNW 13.1 mph /  21.1 km/h 23.0 mph /  37 km/h 53 % 0.00 in /  0 mm
20:14 19.3 °F /  -7.1 °C 4.5 °F /  -15.3 °C 30.02 in /  1016.5 hPa West 8.9 mph /  14.3 km/h 17.3 mph /  27.8 km/h 52 % 0.00 in /  0 mm
20:19 19.2 °F /  -7.1 °C 4.4 °F /  -15.3 °C 30.02 in /  1016.5 hPa WNW 8.6 mph /  13.8 km/h 15.0 mph /  24.1 km/h 52 % 0.00 in /  0 mm
20:24 19.1 °F /  -7.2 °C 4.8 °F /  -15.1 °C 30.03 in /  1016.8 hPa WNW 7.9 mph /  12.7 km/h 12.7 mph /  20.4 km/h 53 % 0.00 in /  0 mm
20:29 19.1 °F /  -7.2 °C 4.8 °F /  -15.1 °C 30.04 in /  1017.2 hPa NW 11.1 mph /  17.9 km/h 17.0 mph /  27.4 km/h 53 % 0.00 in /  0 mm
20:34 19.0 °F /  -7.2 °C 4.2 °F /  -15.4 °C 30.04 in /  1017.2 hPa NNW 10.3 mph /  16.6 km/h 17.3 mph /  27.8 km/h 52 % 0.00 in /  0 mm
20:39 18.9 °F /  -7.3 °C 4.6 °F /  -15.2 °C 30.04 in /  1017.2 hPa NW 10.8 mph /  17.4 km/h 18.4 mph /  29.6 km/h 53 % 0.00 in /  0 mm
20:45 18.8 °F /  -7.3 °C 4.5 °F /  -15.3 °C 30.04 in /  1017.2 hPa NNW 9.4 mph /  15.1 km/h 23.0 mph /  37 km/h 53 % 0.00 in /  0 mm
20:50 18.7 °F /  -7.4 °C 4.4 °F /  -15.3 °C 30.05 in /  1017.5 hPa NW 7.2 mph /  11.6 km/h 19.6 mph /  31.5 km/h 53 % 0.00 in /  0 mm
20:55 18.6 °F /  -7.4 °C 4.7 °F /  -15.2 °C 30.05 in /  1017.5 hPa West 10.8 mph /  17.4 km/h 23.0 mph /  37 km/h 54 % 0.00 in /  0 mm
21:00 18.4 °F /  -7.6 °C 4.5 °F /  -15.3 °C 30.06 in /  1017.8 hPa NNW 5.9 mph /  9.5 km/h 19.6 mph /  31.5 km/h 54 % 0.00 in /  0 mm
21:05 18.4 °F /  -7.6 °C 4.9 °F /  -15.1 °C 30.06 in /  1017.8 hPa WNW 5.9 mph /  9.5 km/h 13.8 mph /  22.2 km/h 55 % 0.00 in /  0 mm
21:10 18.2 °F /  -7.7 °C 3.5 °F /  -15.8 °C 30.06 in /  1017.8 hPa WNW 9.5 mph /  15.3 km/h 26.5 mph /  42.6 km/h 52 % 0.00 in /  0 mm
21:15 18.0 °F /  -7.8 °C 3.3 °F /  -15.9 °C 30.06 in /  1017.8 hPa NNW 11.5 mph /  18.5 km/h 21.9 mph /  35.2 km/h 52 % 0.00 in /  0 mm
21:20 17.9 °F /  -7.8 °C 3.6 °F /  -15.8 °C 30.06 in /  1017.8 hPa West 12.0 mph /  19.3 km/h 26.5 mph /  42.6 km/h 53 % 0.00 in /  0 mm
21:25 17.9 °F /  -7.8 °C 3.6 °F /  -15.8 °C 30.06 in /  1017.8 hPa WNW 10.4 mph /  16.7 km/h 24.2 mph /  38.9 km/h 53 % 0.00 in /  0 mm
21:30 17.9 °F /  -7.8 °C 4.0 °F /  -15.6 °C 30.06 in /  1017.8 hPa WNW 9.8 mph /  15.8 km/h 21.9 mph /  35.2 km/h 54 % 0.00 in /  0 mm
21:35 17.7 °F /  -7.9 °C 3.8 °F /  -15.7 °C 30.06 in /  1017.8 hPa West 5.6 mph /  9 km/h 12.7 mph /  20.4 km/h 54 % 0.00 in /  0 mm
21:40 17.7 °F /  -7.9 °C 4.2 °F /  -15.4 °C 30.06 in /  1017.8 hPa WNW 10.7 mph /  17.2 km/h 23.0 mph /  37 km/h 55 % 0.00 in /  0 mm
21:45 17.5 °F /  -8.1 °C 4.1 °F /  -15.5 °C 30.06 in /  1017.8 hPa WNW 8.1 mph /  13 km/h 14.0 mph /  22.5 km/h 55 % 0.00 in /  0 mm
21:50 17.4 °F /  -8.1 °C 3.6 °F /  -15.8 °C 30.07 in /  1018.2 hPa WNW 10.8 mph /  17.4 km/h 17.3 mph /  27.8 km/h 54 % 0.00 in /  0 mm
21:55 17.3 °F /  -8.2 °C 3.9 °F /  -15.6 °C 30.07 in /  1018.2 hPa WSW 7.1 mph /  11.4 km/h 12.7 mph /  20.4 km/h 55 % 0.00 in /  0 mm
22:00 17.2 °F /  -8.2 °C 3.8 °F /  -15.7 °C 30.07 in /  1018.2 hPa NW 7.8 mph /  12.6 km/h 12.7 mph /  20.4 km/h 55 % 0.00 in /  0 mm
22:05 17.2 °F /  -8.2 °C 4.2 °F /  -15.4 °C 30.07 in /  1018.2 hPa WNW 6.5 mph /  10.5 km/h 11.5 mph /  18.5 km/h 56 % 0.00 in /  0 mm
22:10 17.1 °F /  -8.3 °C 4.5 °F /  -15.3 °C 30.07 in /  1018.2 hPa WNW 8.1 mph /  13 km/h 15.0 mph /  24.1 km/h 57 % 0.00 in /  0 mm
22:16 17.1 °F /  -8.3 °C 4.5 °F /  -15.3 °C 30.07 in /  1018.2 hPa NW 8.3 mph /  13.4 km/h 21.9 mph /  35.2 km/h 57 % 0.00 in /  0 mm
22:21 17.1 °F /  -8.3 °C 3.7 °F /  -15.7 °C 30.07 in /  1018.2 hPa WNW 7.0 mph /  11.3 km/h 20.0 mph /  32.2 km/h 55 % 0.00 in /  0 mm
22:26 17.0 °F /  -8.3 °C 3.6 °F /  -15.8 °C 30.07 in /  1018.2 hPa WNW 8.0 mph /  12.9 km/h 18.0 mph /  29 km/h 55 % 0.00 in /  0 mm
22:31 16.9 °F /  -8.4 °C 3.9 °F /  -15.6 °C 30.07 in /  1018.2 hPa West 5.2 mph /  8.4 km/h 13.8 mph /  22.2 km/h 56 % 0.00 in /  0 mm
22:36 16.9 °F /  -8.4 °C 4.3 °F /  -15.4 °C 30.07 in /  1018.2 hPa NW 9.0 mph /  14.5 km/h 18.0 mph /  29 km/h 57 % 0.00 in /  0 mm
22:41 16.9 °F /  -8.4 °C 4.3 °F /  -15.4 °C 30.07 in /  1018.2 hPa WNW 8.0 mph /  12.9 km/h 18.0 mph /  29 km/h 57 % 0.00 in /  0 mm
22:46 16.8 °F /  -8.4 °C 4.2 °F /  -15.4 °C 30.07 in /  1018.2 hPa West 6.7 mph /  10.8 km/h 12.7 mph /  20.4 km/h 57 % 0.00 in /  0 mm
22:51 16.8 °F /  -8.4 °C 4.6 °F /  -15.2 °C 30.08 in /  1018.5 hPa NW 7.0 mph /  11.3 km/h 16.0 mph /  25.7 km/h 58 % 0.00 in /  0 mm
22:56 16.8 °F /  -8.4 °C 3.8 °F /  -15.7 °C 30.08 in /  1018.5 hPa WNW 1.0 mph /  1.6 km/h 18.0 mph /  29 km/h 56 % 0.00 in /  0 mm
23:01 16.8 °F /  -8.4 °C 4.2 °F /  -15.4 °C 30.08 in /  1018.5 hPa WNW 8.0 mph /  12.9 km/h 13.8 mph /  22.2 km/h 57 % 0.00 in /  0 mm
23:06 16.8 °F /  -8.4 °C 4.6 °F /  -15.2 °C 30.08 in /  1018.5 hPa NW 7.0 mph /  11.3 km/h 17.0 mph /  27.4 km/h 58 % 0.00 in /  0 mm
23:11 16.7 °F /  -8.5 °C 4.1 °F /  -15.5 °C 30.08 in /  1018.5 hPa NW 6.0 mph /  9.7 km/h 17.0 mph /  27.4 km/h 57 % 0.00 in /  0 mm
23:16 16.7 °F /  -8.5 °C 4.5 °F /  -15.3 °C 30.08 in /  1018.5 hPa NW 7.0 mph /  11.3 km/h 17.0 mph /  27.4 km/h 58 % 0.00 in /  0 mm
23:21 16.7 °F /  -8.5 °C 4.5 °F /  -15.3 °C 30.09 in /  1018.8 hPa NW 6.0 mph /  9.7 km/h 14.0 mph /  22.5 km/h 58 % 0.00 in /  0 mm
23:26 16.6 °F /  -8.6 °C 4.4 °F /  -15.3 °C 30.09 in /  1018.8 hPa WNW 9.3 mph /  15 km/h 18.0 mph /  29 km/h 58 % 0.00 in /  0 mm
23:31 16.6 °F /  -8.6 °C 4.0 °F /  -15.6 °C 30.09 in /  1018.8 hPa NW 9.0 mph /  14.5 km/h 18.0 mph /  29 km/h 57 % 0.00 in /  0 mm
23:36 16.6 °F /  -8.6 °C 4.0 °F /  -15.6 °C 30.09 in /  1018.8 hPa NW 2.0 mph /  3.2 km/h 16.0 mph /  25.7 km/h 57 % 0.00 in /  0 mm
23:41 16.6 °F /  -8.6 °C 4.7 °F /  -15.2 °C 30.09 in /  1018.8 hPa WNW 8.0 mph /  12.9 km/h 15.0 mph /  24.1 km/h 59 % 0.00 in /  0 mm
23:46 16.6 °F /  -8.6 °C 4.4 °F /  -15.3 °C 30.09 in /  1018.8 hPa WNW 7.0 mph /  11.3 km/h 24.0 mph /  38.6 km/h 58 % 0.00 in /  0 mm
23:51 16.5 °F /  -8.6 °C 4.7 °F /  -15.2 °C 30.09 in /  1018.8 hPa WNW 9.0 mph /  14.5 km/h 20.0 mph /  32.2 km/h 59 % 0.00 in /  0 mm
23:56 16.5 °F /  -8.6 °C 4.3 °F /  -15.4 °C 30.10 in /  1019.2 hPa WNW 9.0 mph /  14.5 km/h 17.0 mph /  27.4 km/h 58 % 0.00 in /  0 mm
Crab Meadow Weather
Compliments of Weather Underground - 3 mb

Script developed by  Jim McMurry - jmcmurry@mwt.net Adapted for the template by  Wim van der Kuil - Leuven-Template.eu

Weather Terms: Watch - A watch is used when the risk of a hazardous weather or hydrologic event has increased significantly, but its occurrence, location or timing is still uncertain. It is intended to provide enough lead time so those who need to set their plans in motion can do so. A watch means that hazardous weather is possible. People should have a plan of action in case a storm threatens and they should listen for later information and possible warnings especially when planning travel or outdoor activities.